Weather reports worldwide

Advertisment
Carlisle, United Kingdom (3220): temperature & dewpoint: 02.07.2020 04:00:00 - 08.07.2020 04:00:00 (BST)Carlisle, United Kingdom (3220): temperature -100cm: 02.07.2020 04:00:00 - 08.07.2020 04:00:00 (BST)Carlisle, United Kingdom (3220): reduced air pressure: 02.07.2020 04:00:00 - 08.07.2020 04:00:00 (BST)Carlisle, United Kingdom (3220): visibility: 02.07.2020 04:00:00 - 08.07.2020 04:00:00 (BST)Carlisle, United Kingdom (3220): precipitation: 02.07.2020 04:00:00 - 08.07.2020 04:00:00 (BST)
Date & Time tt [°C] td [°C] tt -100cm [°C] ppp [hPa] vv [km] rr [mm]
08.07.2020 04:00:00 7,4 6,8 - 1014,4 50 -
08.07.2020 03:00:00 8,0 7,4 - 1014,5 30 0,0
08.07.2020 02:00:00 8,8 8,0 - 1014,9 25 0,0
08.07.2020 01:00:00 9,9 8,6 - 1015,0 35 0,0
08.07.2020 00:00:00 10,4 9,0 - 1014,8 45 0,0
07.07.2020 23:00:00 11,1 9,0 - 1015,0 60 0,0
07.07.2020 22:00:00 12,1 8,8 - 1014,7 75 0,0
07.07.2020 21:00:00 12,9 9,3 - 1014,8 75 0,0
07.07.2020 20:00:00 13,4 8,9 - 1014,9 75 0,0
07.07.2020 19:00:00 13,9 8,3 - 1015,4 75 0,0
07.07.2020 18:00:00 14,1 8,0 - 1015,4 75 0,0
07.07.2020 17:00:00 14,5 8,6 - 1016,1 75 0,0
07.07.2020 16:00:00 13,9 8,5 - 1016,4 75 0,0
07.07.2020 15:00:00 13,8 8,5 - 1016,6 75 0,0
07.07.2020 14:00:00 13,3 8,8 - 1016,8 75 0,0
07.07.2020 13:00:00 12,1 10,4 - 1017,1 27 0,2
07.07.2020 12:00:00 13,2 9,2 - 1017,3 50 0,0
07.07.2020 11:00:00 12,6 10,3 - 1017,4 45 0,8
07.07.2020 10:00:00 12,9 9,3 14,9 1017,7 70 0,0
07.07.2020 09:00:00 12,7 9,6 - 1017,9 35 0,0
07.07.2020 08:00:00 12,2 9,3 - 1018,1 45 0,0
07.07.2020 07:00:00 11,6 9,5 - 1018,3 40 0,0
07.07.2020 06:00:00 10,9 9,1 - 1018,5 30 0,0
07.07.2020 05:00:00 10,8 8,8 - 1018,8 35 0,0
07.07.2020 04:00:00 11,2 8,9 - 1019,2 35 0,0
07.07.2020 03:00:00 11,6 8,9 - 1019,8 40 0,0
07.07.2020 02:00:00 11,4 8,6 - 1020,1 45 0,0
07.07.2020 01:00:00 11,6 8,3 - 1020,3 45 0,0
07.07.2020 00:00:00 11,5 7,9 - 1020,4 50 0,0
06.07.2020 23:00:00 12,2 7,4 - 1020,6 55 0,0
06.07.2020 22:00:00 12,5 7,5 - 1020,6 60 0,0
06.07.2020 21:00:00 13,1 6,9 - 1020,4 75 0,0
06.07.2020 20:00:00 14,9 6,8 - 1020,0 75 0,0
06.07.2020 19:00:00 15,4 7,7 - 1019,9 65 0,0
06.07.2020 18:00:00 16,1 8,3 - 1019,8 65 0,0
06.07.2020 17:00:00 16,3 7,4 - 1019,7 55 0,0
06.07.2020 16:00:00 17,0 7,2 - 1019,2 25 0,0
06.07.2020 15:00:00 17,3 7,6 - 1018,9 70 0,0
06.07.2020 14:00:00 17,3 8,6 - 1018,2 75 0,0
06.07.2020 13:00:00 15,8 8,7 - 1017,6 75 0,0
06.07.2020 12:00:00 16,1 9,0 - 1016,8 75 0,0
06.07.2020 11:00:00 15,8 8,9 - 1015,9 75 0,0
06.07.2020 10:00:00 15,5 10,1 15,0 1015,1 75 0,0
06.07.2020 09:00:00 13,8 9,5 - 1014,3 75 0,0
06.07.2020 08:00:00 13,2 9,8 - 1012,9 60 0,0
06.07.2020 07:00:00 12,0 9,7 - 1011,3 40 0,0
06.07.2020 06:00:00 11,5 9,9 - 1010,1 35 0,0
06.07.2020 05:00:00 11,4 9,6 - 1009,4 15 0,0
06.07.2020 04:00:00 11,6 9,2 - 1008,9 30 0,0
06.07.2020 03:00:00 11,5 9,2 - 1008,6 35 0,0
06.07.2020 02:00:00 11,2 8,6 - 1008,1 40 0,0
06.07.2020 01:00:00 11,6 8,7 - 1007,6 50 0,0
06.07.2020 00:00:00 11,5 8,2 - 1006,9 65 0,0
05.07.2020 23:00:00 11,8 8,7 - 1005,9 50 0,0
05.07.2020 22:00:00 12,0 8,8 - 1004,9 45 0,0
05.07.2020 21:00:00 12,2 8,8 - 1003,7 50 0,0
05.07.2020 20:00:00 12,2 8,5 - 1002,5 70 0,0
05.07.2020 19:00:00 11,1 8,7 - 1001,6 30 1,0
05.07.2020 18:00:00 12,7 9,9 - 1002,1 35 0,8
05.07.2020 17:00:00 13,8 9,1 - 1002,4 35 0,0
05.07.2020 16:00:00 14,0 9,2 - 1002,3 60 3,6
05.07.2020 15:00:00 13,0 9,4 - 1002,7 10 0,4
05.07.2020 14:00:00 14,1 11,2 - 1002,5 30 0,0
05.07.2020 13:00:00 14,8 9,1 - 1002,5 40 0,4
05.07.2020 12:00:00 12,5 9,9 - 1003,0 4,2 0,2
05.07.2020 11:00:00 13,9 8,6 - 1002,7 35 0,0
05.07.2020 10:00:00 14,1 8,3 15,0 1002,1 75 0,0
05.07.2020 09:00:00 13,7 8,8 - 1001,2 65 0,0
05.07.2020 08:00:00 13,2 9,3 - 1000,2 65 0,0
05.07.2020 07:00:00 12,8 9,1 - 999,6 75 0,0
05.07.2020 06:00:00 13,5 10,3 - 998,6 55 0,0
05.07.2020 05:00:00 13,6 12,4 - 997,0 55 2,8
05.07.2020 04:00:00 15,1 13,5 - 996,0 29 0,6
05.07.2020 03:00:00 15,8 14,2 - 995,0 5 0,0
05.07.2020 02:00:00 15,9 14,3 - 994,6 22 0,4
05.07.2020 01:00:00 15,8 14,2 - 994,9 19 0,0
05.07.2020 00:00:00 15,9 14,4 - 996,0 50 0,2
04.07.2020 23:00:00 15,5 14,6 - 997,1 8 1,2
04.07.2020 22:00:00 15,5 13,9 - 998,4 75 0,2
04.07.2020 21:00:00 15,7 13,8 - 1000,1 40 0,0
04.07.2020 20:00:00 15,0 14,1 - 1001,7 40 0,0
04.07.2020 19:00:00 14,8 13,8 - 1002,6 4,5 0,0
04.07.2020 18:00:00 15,9 12,5 - 1003,4 75 0,0
04.07.2020 17:00:00 15,9 12,1 - 1003,9 75 0,0
04.07.2020 16:00:00 16,0 12,5 - 1004,3 75 0,0
04.07.2020 15:00:00 16,0 12,9 - 1004,4 75 0,0
04.07.2020 14:00:00 16,1 13,3 - 1004,3 70 0,0
04.07.2020 13:00:00 15,5 13,9 - 1004,3 75 0,0
04.07.2020 12:00:00 14,8 13,6 - 1004,4 75 0,0
04.07.2020 11:00:00 14,8 14,1 - 1003,8 75 0,2
04.07.2020 10:00:00 14,1 13,5 15,0 1003,9 2,8 0,0
04.07.2020 09:00:00 13,7 13,0 - 1003,9 25 0,0
04.07.2020 08:00:00 12,9 12,6 - 1003,9 17 0,0
04.07.2020 07:00:00 12,3 12,1 - 1003,9 35 0,0
04.07.2020 06:00:00 12,1 11,9 - 1003,8 2,2 0,8
04.07.2020 05:00:00 12,0 11,8 - 1003,3 7 2,6
04.07.2020 04:00:00 12,0 11,8 - 1003,4 4,6 1,8
04.07.2020 03:00:00 12,0 11,8 - 1003,9 3,9 1,2
04.07.2020 02:00:00 12,1 11,8 - 1004,0 3,4 0,8
04.07.2020 01:00:00 12,1 11,8 - 1004,4 3,1 1,2
04.07.2020 00:00:00 12,2 11,8 - 1004,7 2,3 1,4
03.07.2020 23:00:00 12,4 12,0 - 1004,8 7 1,2
03.07.2020 22:00:00 12,5 12,0 - 1004,5 2,4 2,0
03.07.2020 21:00:00 14,3 14,0 - 1004,1 2,4 0,8
03.07.2020 20:00:00 14,5 13,9 - 1003,6 1,5 0,0
03.07.2020 19:00:00 14,6 13,6 - 1003,5 15 0,0
03.07.2020 18:00:00 14,5 13,6 - 1003,9 18 0,0
03.07.2020 17:00:00 14,5 13,6 - 1004,0 14 0,2
03.07.2020 16:00:00 14,5 13,9 - 1004,3 2,0 0,4
03.07.2020 15:00:00 14,2 13,4 - 1004,6 3,2 0,0
03.07.2020 14:00:00 14,3 13,5 - 1005,0 3,2 0,4
03.07.2020 13:00:00 13,9 13,2 - 1005,7 2,2 0,0
03.07.2020 12:00:00 13,9 13,0 - 1005,6 40 1,2
03.07.2020 11:00:00 13,6 12,5 - 1005,8 4,9 2,0
03.07.2020 10:00:00 13,1 12,1 15,2 1006,2 9 3,2
03.07.2020 09:00:00 12,4 11,5 - 1006,8 5 0,2
03.07.2020 08:00:00 12,3 10,7 - 1006,9 35 0,2
03.07.2020 07:00:00 11,8 10,6 - 1007,7 14 0,2
03.07.2020 06:00:00 11,3 10,4 - 1008,5 4,7 0,4
03.07.2020 05:00:00 11,7 10,9 - 1009,3 10 0,4
03.07.2020 04:00:00 11,9 10,6 - 1009,9 6 1,0
03.07.2020 03:00:00 12,6 10,1 - 1010,5 11 0,0
03.07.2020 02:00:00 12,9 10,2 - 1010,9 24 0,0
03.07.2020 01:00:00 12,6 10,9 - 1011,5 29 0,0
03.07.2020 00:00:00 12,6 10,8 - 1012,0 35 0,0
02.07.2020 23:00:00 12,4 10,6 - 1012,3 40 0,0
02.07.2020 22:00:00 12,6 10,3 - 1012,3 45 0,0
02.07.2020 21:00:00 13,3 10,2 - 1012,2 55 0,0
02.07.2020 20:00:00 14,3 10,2 - 1012,1 60 0,0
02.07.2020 19:00:00 15,4 10,7 - 1011,8 65 0,0
02.07.2020 18:00:00 16,0 10,7 - 1011,6 75 0,0
02.07.2020 17:00:00 16,6 9,6 - 1011,6 75 0,0
02.07.2020 16:00:00 16,6 9,4 - 1011,5 75 0,0
02.07.2020 15:00:00 16,4 9,1 - 1011,6 75 0,0
02.07.2020 14:00:00 15,4 8,6 - 1011,5 60 0,0
02.07.2020 13:00:00 15,1 8,7 - 1011,4 75 0,0
02.07.2020 12:00:00 14,7 8,9 - 1011,1 50 0,0
02.07.2020 11:00:00 14,5 8,8 - 1010,8 60 0,0
02.07.2020 10:00:00 12,4 8,2 15,2 1010,6 60 0,0
02.07.2020 09:00:00 11,6 9,4 - 1009,9 50 0,0
02.07.2020 08:00:00 10,6 9,2 - 1009,4 45 0,0
02.07.2020 07:00:00 9,7 8,5 - 1009,2 45 0,0
02.07.2020 06:00:00 9,1 8,4 - 1008,5 40 0,2
02.07.2020 05:00:00 8,6 7,8 - 1008,2 14 1,0
02.07.2020 04:00:00 8,7 7,8 - 1008,1 4,4 0,0

tt = temperature
td = dewpoint
tt -100cm = temperature -100cm
ppp = reduced air pressure
vv = visibility
rr = precipitation

Next stations